World > North America > United States > Michigan   City of Ann Arbor, Michigan
Hourly regional weather for Ann Arbor, MichiganAnn Arbor, Michigan Regional Hourly Weather

Ann Arbor, Michigan Regional Weather

regional weather ann arbor, miHOURLY REGIONAL WEATHER FOR ANN ARBOR, MI
Lat: 42.28N, Lon: 83.73W 
Web Search
Ann Arbor Weather Warning NWS WEATHER ALERT FOR THE ANN ARBOR, MI AREA - Issued: 427 AM EDT Wed Oct 20 2021 Ann Arbor Weather Warning  

If you are on your PC, you can easily pass this page to your phone by scanning the QR Code near the bottom with your camera.

Feedback


°F Click to change Ann Arbor hourly weather to Imperial units.Click to change Ann Arbor hourly weather to Metric units. °C
Ann Arbor Weather Map
UTC Time: 10/21/2021, 00:01
Your Time:

Ann Arbor, MI Regional Weather

Expires:202110210000;;002765
ASUS43 KDTX 202310
RWRMI 
MICHIGAN HOURLY REGIONAL WEATHER ROUNDUP
NATIONAL WEATHER SERVICE DETROIT/PONTIAC MI
700 PM EDT WED OCT 20 2021

NOTE: "FAIR" INDICATES FEW OR NO CLOUDS BELOW 12,000 FEET WITH NO
SIGNIFICANT WEATHER AND/OR OBSTRUCTION TO VISIBILITY.


MIZ047>049-052>055-059>063-066>070-074>076-081>083-210000-
SOUTHEAST LOWER MICHIGAN
  
CITY           SKY/WX    TMP DP  RH WIND       PRES   REMARKS
ADRIAN         PTCLDY    66  50  56 CALM      30.02R                  
ALMA           CLOUDY    62  55  77 S5        29.96S                  
ANN ARBOR      PTCLDY    63  50  62 CALM      30.00R                  
BAD AXE        MOCLDY    61  54  78 SW6       29.95F                  
CARO           MOCLDY    63  51  64 W5        29.97R                  
DETROIT CITY   PTCLDY    67  50  54 S6        30.00R                  
DETROIT        MOCLDY    65  49  56 S5        30.01R                  
FLINT          PTCLDY    67  49  52 SW3       29.99S                  
GROSSE ILE     MOCLDY    64  55  74 CALM      30.00R                  
HILLSDALE      MOCLDY    65  49  55 SE5       29.99F                  
HOWELL         PTCLDY    66  50  56 S3        30.00S                  

CITY           SKY/WX    TMP DP  RH WIND       PRES   REMARKS
JACKSON        CLOUDY    65  50  58 E3        29.99S                  
LAMBERTVILLE   PTCLDY    62  54  73 CALM      30.00S                  
LANSING        CLOUDY    66  52  60 S3        29.97F                  
LAPEER         PTCLDY    63  49  61 S3        29.98F                  
MASON          MOCLDY    65  50  57 SE5       29.98F                  
MONROE         PTCLDY    63  51  64 CALM      30.00R                  
MT. CLEMENS    MOCLDY    59  57  94 S8        29.98S                  
PONTIAC        CLOUDY    66  50  56 S3        29.99S                  
PORT HURON     PTCLDY    63  50  63 S3        29.99S                  
TRI CITIES     CLOUDY    66  51  58 S8        29.96S                  
MIDLAND        LGT RAIN  64  56  74 CALM      29.93F                  
TROY           PTCLDY    69  49  48 SW5       30.02S                  
SAGINAW HB     CLOUDY    66  52  60 SW8       29.96R                  
$$

SKY/WX - Weather  TMP - Temperature  DP - Dew Point  RH - Relative Humidity
WIND - Wind Direction/Speed PRES - Barometric Pressure VSB - Visibility
WCI - Wind Chill Index E13G22 Wind - East Wind 13 mph/Gusts of 22 mph